Location: Congrier
(47.8099°N, 1.1170°W)
Time: 21:27:50
(UTC+00:00)

FENGYUN 1C DEB - Visible Passes

Search period start: 27 February 2024 00:00
Search period end: 08 March 2024 00:00
Orbit: 596 x 928 km, 98.3° (Epoch: 27 February)

Date Brightness Start Highest point End Pass type
(mag) Time Alt. Az. Time Alt. Az. Time Alt. Az.
27 Feb ? 18:42:08 10° SSE 18:46:54 81° WSW 18:52:13 10° NNW visible
27 Feb ? 20:25:33 10° W 20:26:53 11° W 20:28:14 10° WNW visible
28 Feb ? 19:44:40 10° SW 19:48:35 24° W 19:52:48 10° NW visible
29 Feb ? 06:10:29 10° NE 06:14:05 16° E 06:17:40 10° SE visible
29 Feb ? 19:05:49 10° S 19:10:32 51° W 19:15:44 10° NNW visible
01 Mar ? 18:27:50 10° SSE 18:32:44 78° ENE 18:38:10 10° NNW visible
01 Mar ? 20:09:30 10° WSW 20:12:27 16° W 20:15:33 10° NW visible
02 Mar ? 19:29:47 10° SSW 19:34:13 32° W 19:39:03 10° NNW visible
03 Mar ? 05:57:21 10° ENE 05:59:43 12° E 06:02:05 10° ESE visible
03 Mar ? 18:51:18 10° S 18:56:15 68° WSW 19:01:44 10° NNW visible
04 Mar ? 19:54:09 10° SW 19:57:59 21° W 20:02:05 10° NW visible
05 Mar ? 19:15:01 10° SSW 19:19:50 43° W 19:25:08 10° NNW visible
06 Mar ? 18:36:49 10° SSE 18:41:58 88° W 18:47:37 10° NNW visible
06 Mar ? 20:19:12 10° WSW 20:21:49 14° W 20:24:32 10° NW visible
07 Mar ? 19:39:03 10° SSW 19:43:30 28° W 19:48:18 10° NNW visible
